Location: Chuathbaluk
(61.5726°N, 159.2454°W)
Time: 14:23:23
(UTC+00:00)

N. Korean satellite - Pass Details

Date: 03 November 2020
Orbit: 453 x 503 km, 97.2° (Epoch: 03 December)

Event Time Altitude Azimuth Distance (km) Brightness Sun altitude
Rises 14:49:58 0° 28° (NNE) 2,486 10.7 -24.2°
Reaches altitude 10° 14:53:30 10° 67° (ENE) 1,603 10.2 -23.8°
Maximum altitude 14:54:26 11° 83° (E) 1,551 10.2 -23.6°
Drops below altitude 10° 14:55:21 10° 99° (E) 1,601 10.1 -23.5°
Sets 14:58:52 0° 138° (SE) 2,472 10.6 -23.1°
